This is the latest recevied weather packets stored in our database for station/object AB4KY. If no packets are shown the sender has not sent any weather packets the latest 10 day(s).
| Time | Temp. | Humidity | Pressure | Rain* | Wind** | Luminosity | Snow |
|---|---|---|---|---|---|---|---|
| 1777425389 | 18.33° C | 94% | 1011.5 hPa | 0 mm | - | 0 W/m² | - |
| 1777425086 | 18.33° C | 94% | 1011.1 hPa | 0 mm | - | 0 W/m² | - |
| 1777424782 | 18.33° C | 94% | 1011 hPa | 0 mm | - | 0 W/m² | - |
| 1777424477 | 18.89° C | 93% | 1011 hPa | 0 mm | - | 0 W/m² | - |
| 1777424173 | 18.89° C | 93% | 1011 hPa | 0 mm | - | 0 W/m² | - |
| 1777423870 | 18.89° C | 92% | 1010.9 hPa | 0 mm | - | 0 W/m² | - |
| 1777423567 | 18.89° C | 92% | 1010.7 hPa | 0 mm | - | 0 W/m² | - |
| 1777423262 | 18.89° C | 91% | 1010.6 hPa | 0 mm | - | 0 W/m² | - |
| 1777422956 | 18.89° C | 91% | 1011 hPa | 0 mm | - | 0 W/m² | - |
| 1777422652 | 18.89° C | 91% | 1010.8 hPa | 0 mm | - | 0 W/m² | - |
| 1777422347 | 19.44° C | 90% | 1010.8 hPa | 0 mm | - | 0 W/m² | - |
| 1777422042 | 19.44° C | 90% | 1010.9 hPa | 0 mm | - | 0 W/m² | - |
| 1777421737 | 19.44° C | 89% | 1011 hPa | 0 mm | - | 0 W/m² | - |
| 1777421433 | 20° C | 89% | 1010.8 hPa | 0 mm | - | 1 W/m² | - |
| 1777421129 | 20° C | 87% | 1010.9 hPa | 0 mm | - | 4 W/m² | - |
| 1777420826 | 20° C | 87% | 1011.1 hPa | 0 mm | - | 6 W/m² | - |
| 1777420522 | 20° C | 85% | 1010.9 hPa | 0 mm | - | 9 W/m² | - |
| 1777420218 | 20.56° C | 86% | 1010.8 hPa | 0 mm | - | 12 W/m² | - |
| 1777419914 | 20.56° C | 84% | 1010.6 hPa | 0 mm | - | 13 W/m² | - |
| 1777419611 | 21.11° C | 86% | 1010.6 hPa | 0 mm | - | 18 W/m² | - |
| 1777419310 | 21.11° C | 85% | 1010.4 hPa | 0 mm | - | 21 W/m² | - |
| 1777419008 | 21.11° C | 83% | 1010.8 hPa | 0 mm | - | 23 W/m² | - |
| 1777418702 | 21.11° C | 83% | 1011 hPa | 0 mm | - | 26 W/m² | - |
| 1777418399 | 21.67° C | 83% | 1011 hPa | 0 mm | - | 26 W/m² | - |
| 1777418095 | 21.67° C | 80% | 1011.1 hPa | 0 mm | - | 33 W/m² | - |
* Rain latest hour (hover to see other rain measurements)
** Current wind speed in m/s (hover to see current wind gust speed)